Flag for Austria Weather past 2 weeks in Kapfenberg, Styria, Austria

Now
55 °F

Scattered clouds.


Feels Like: 55 °F
Forecast: 45 / 67 °F
Wind: 3 mph from Southeast

Location: Zeltweg

Current Time: Aug 22, 2014 at 8:52:13 AM

Latest Report: Aug 22, 2014 at 8:20 AM


Visibility: 5 mi

Pressure: 30.07 "Hg

Humidity: 88%

Dew point: 52 °F

Location of KapfenbergLocation

Historic Weather in Kapfenberg — Graph

°F

Kapfenberg temperature yesterday

Maximum temperature yesterday: 66 °F (at 3:50 PM)
Minimum temperature yesterday: 50 °F (at 4:50 AM)
Average temperature yesterday: 59 °F

Past Weeks' High & Low Weather Summary

 TemperatureHumidityPressure
High84 °F (Aug 13, 5:50 PM)100% (Aug 9, 4:50 AM)30.15 "Hg (Aug 9, 4:50 AM)
Low43 °F (Aug 18, 5:50 AM)34% (Aug 8, 1:50 PM)29.71 "Hg (Aug 13, 1:50 PM)
Average62 °F74%30.00 "Hg
* Reported Aug 7 7:50 AM — Aug 22 7:20 AM, Kapfenberg, Weather by CustomWeather, © 2014

Note: Actual official high and low records may vary slightly from our data, if they occured in-between our weather recording intervals... More about our weather records

Advertising

Kapfenberg weather history for previous 24 hours

 ConditionsComfort  
Time TempWeatherWind HumidityBarometerVisibility
7:20 AM
Aug 22
54 °FPartly sunny.1 mph100%30.07 "Hg4 mi
6:50 AM54 °FPassing clouds.No wind100%30.07 "Hg4 mi
5:50 AM54 °FPassing clouds.3 mph100%30.07 "Hg4 mi
4:50 AM54 °FPartly cloudy.2 mph100%30.07 "Hg6 mi
10:50 PM
Aug 21
55 °FSprinkles. Partly cloudy.1 mph94%30.09 "Hg6 mi
9:50 PM55 °FSprinkles. Partly cloudy.3 mph94%30.09 "Hg6 mi
8:50 PM59 °FPartly sunny.5 mph77%30.07 "Hg12 mi
7:50 PM59 °FPartly sunny.6 mph77%30.04 "Hg16 mi
7:20 PM61 °FPartly sunny.6 mph63%30.04 "Hg16 mi
6:50 PM63 °FPartly sunny.6 mph56%30.04 "Hg16 mi
6:20 PM63 °FPartly sunny.8 mph59%30.04 "Hg16 mi
5:50 PM63 °FBroken clouds.6 mph59%30.04 "Hg19 mi
5:20 PM64 °FBroken clouds.8 mph56%30.04 "Hg19 mi
4:50 PM64 °FPartly sunny.8 mph52%30.04 "Hg19 mi
4:20 PM64 °FPartly sunny.9 mph52%30.04 "Hg19 mi
3:50 PM66 °FBroken clouds.9 mph52%30.04 "Hg19 mi
3:20 PM64 °FBroken clouds.7 mph52%30.07 "Hg19 mi
2:50 PM64 °FBroken clouds.10 mph52%30.07 "Hg22 mi
2:20 PM64 °FBroken clouds.8 mph60%30.07 "Hg22 mi
1:50 PM64 °FBroken clouds.5 mph52%30.07 "Hg25 mi
1:20 PM64 °FPartly sunny.3 mph52%30.07 "Hg25 mi
12:50 PM63 °FPartly sunny.3 mph52%30.07 "Hg28 mi
12:20 PM63 °FScattered clouds.3 mph56%30.07 "Hg28 mi
11:50 AM63 °FScattered clouds.5 mph59%30.07 "Hg25 mi
11:20 AM61 °FScattered clouds.6 mph59%30.07 "Hg25 mi
10:50 AM59 °FScattered clouds.3 mph68%30.07 "Hg25 mi
10:20 AM57 °FPassing clouds.1 mph72%30.07 "Hg25 mi
9:50 AM55 °FPassing clouds.2 mph82%30.07 "Hg19 mi
9:20 AM54 °FScattered clouds.3 mph88%30.07 "Hg19 mi
8:50 AM54 °FBroken clouds.1 mph94%30.07 "Hg19 mi
8:20 AM52 °FBroken clouds.1 mph94%30.04 "Hg12 mi
Weather by CustomWeather, © 2014

See weather overviewHow to use our weather pages